Weather History for Fort Myers, FL

Change the Weather History Date:

Sunday, March 17, 2013

  Actual Average Record
Temperature  
Mean Temperature 67 °F 70 °F  
Max Temperature 80 °F 81 °F 89 °F (2002)
Min Temperature 54 °F 60 °F 39 °F (1916)
Degree Days  
Heating Degree Days 0 1  
Month to date heating degree days 61 17  
Since 1 July heating degree days 177 277  
Cooling Degree Days 2 6  
Month to date cooling degree days 15 88  
Year to date cooling degree days 326 273  
Growing Degree Days 16 (Base 50)    
Moisture  
Dew Point 54 °F    
Average Humidity 67    
Maximum Humidity 86    
Minimum Humidity 45    
Precipitation  
Precipitation 0.00 in 0.10 in 3.34 in (2005)
Month to date precipitation 0.12 1.60  
Year to date precipitation 2.60 5.69  
Sea Level Pressure  
Sea Level Pressure 30.09 in    
Wind  
Wind Speed 4 mph (South)    
Max Wind Speed 14 mph    
Max Gust Speed 20 mph    
Visibility 10 miles    
Events      
T = Trace of Precipitation, MM = Missing Value Source: NWS Daily Summary

Daily Weather History Graph

Daily Weather History Graph

Search for Another Location

Airport:

Trip Planner

Search our weather history database for the weather conditions in past years. The results will help you decide how hot, cold, wet, or windy it might be!

Date:

Astronomy

Mar. 17, 2013 Rise Set
Actual Time 7:34 AM EDT 7:37 PM EDT
Civil Twilight 7:11 AM EDT 8:00 PM EDT
Nautical Twilight 6:44 AM EDT 8:27 PM EDT
Astronomical Twilight 6:17 AM EDT 8:54 PM EDT
Moon 11:16 AM EDT (3/17) 12:14 AM EDT (3/17)
Length of Visible Light 12h 49m
Length of Day
12h 03m
Waxing Crescent, 31% of the Moon is Illuminated
Mar 17
Waxing Crescent
Mar 19
First Quarter
Mar 27
Full
Apr 3
Last Quarter
Apr 10
New

Hourly Weather History & Observations

Time (EDT) Temp. Dew Point Humidity Pressure Visibility Wind Dir Wind Speed Gust Speed Precip Events Conditions
12:53 AM 57.0 °F 51.1 °F 81% 30.13 in 10.0 mi Calm Calm - N/A   Scattered Clouds
1:53 AM 59.0 °F 53.1 °F 81% 30.12 in 10.0 mi Calm Calm - N/A   Mostly Cloudy
2:53 AM 57.9 °F 52.0 °F 81% 30.12 in 10.0 mi Calm Calm - N/A   Partly Cloudy
3:53 AM 55.9 °F 52.0 °F 87% 30.09 in 10.0 mi Calm Calm - N/A   Clear
4:53 AM 55.0 °F 52.0 °F 89% 30.08 in 10.0 mi Calm Calm - N/A   Clear
6:53 AM 55.0 °F 51.1 °F 86% 30.10 in 10.0 mi ESE 3.5 mph - N/A   Clear
7:53 AM 55.0 °F 51.1 °F 86% 30.12 in 10.0 mi Calm Calm - N/A   Clear
8:53 AM 57.9 °F 53.1 °F 84% 30.14 in 10.0 mi East 5.8 mph - N/A   Scattered Clouds
9:53 AM 64.9 °F 53.1 °F 65% 30.13 in 10.0 mi ESE 9.2 mph - N/A   Clear
10:53 AM 72.0 °F 55.0 °F 55% 30.15 in 10.0 mi SE 8.1 mph - N/A   Mostly Cloudy
11:53 AM 73.9 °F 57.0 °F 55% 30.14 in 10.0 mi SSE 9.2 mph - N/A   Mostly Cloudy
12:53 PM 75.9 °F 55.9 °F 50% 30.12 in 10.0 mi Variable 3.5 mph - N/A   Mostly Cloudy
1:53 PM 77.0 °F 55.9 °F 48% 30.10 in 10.0 mi South 9.2 mph - N/A   Overcast
2:53 PM 78.1 °F 55.0 °F 45% 30.06 in 10.0 mi SW 11.5 mph 18.4 mph N/A   Clear
3:53 PM 77.0 °F 55.0 °F 47% 30.05 in 10.0 mi SW 13.8 mph - N/A   Partly Cloudy
4:53 PM 75.0 °F 55.0 °F 50% 30.04 in 10.0 mi SW 6.9 mph - N/A   Clear
5:53 PM 73.9 °F 55.0 °F 52% 30.03 in 10.0 mi SSW 9.2 mph - N/A   Clear
6:53 PM 73.0 °F 55.0 °F 53% 30.03 in 10.0 mi SSW 4.6 mph - N/A   Clear
7:53 PM 72.0 °F 55.0 °F 55% 30.03 in 10.0 mi SW 3.5 mph - N/A   Clear
8:53 PM 70.0 °F 55.9 °F 61% 30.05 in 10.0 mi Calm Calm - N/A   Mostly Cloudy
9:53 PM 66.9 °F 57.0 °F 70% 30.06 in 10.0 mi Calm Calm - N/A   Partly Cloudy
10:53 PM 66.0 °F 57.0 °F 73% 30.06 in 10.0 mi Calm Calm - N/A   Clear
11:53 PM 63.0 °F 57.0 °F 81% 30.06 in 10.0 mi Calm Calm - N/A   Clear